THOR ABLESTAR DEB, 408

Orbit data source: Space-Track

THOR ABLESTAR DEB, 408 is space debris in LEO originally from a launch on Thu, 29 Jun 1961 UTC launched from the Air Force Eastern Test Range (AFETR). Debris objects in space refer to the collection of defunct objects orbiting the Earth. Examples of debris include non-operational satellites, rocket bodies, and fragments generated from explosions, collisions, or faulty payload assembly.

Loading next visibility...
Identifier
408, 1961-015EH
Orbit
LEO
Country
Flag of USUS
Related business
Manufacturer
Unknown
Mission
Spacecraft
Bus & Motor
Unknown
Mass
Unknown
Launch date (UTC)
1961-06-29 (64 years ago)
Launch vehicle
Unknown
Launch site
Air Force Eastern Test Range (AFETR)
Object type
Payload
Rocket body
Debris
Shape & HBR
Unknown shape, 0.1 m
Radar Cross Section
Medium (>0.1 m² and <1 m²)

Expand to show TLE details & history
Last TLE update: 6 hours ago

TLE from 6 hours ago
0 THOR ABLESTAR DEB
1 00408U 61015EH  25311.27740017  .00000455  00000-0  52602-3 0  9997
2 00408  66.7853 278.9476 0071936 271.4986 195.5836 13.76953001275146
Epoch: 2025-11-07T06:39Z
TLE epoch observation values (Epoch: 2025-11-07T06:39:27.374Z)
Latitude
61.69687°
Longitude
-100.04606°
Altitude
1,035.417 km
Speed
7.315 km/s
True Right ascension
03h 06m 10s
True Declination
61° 33' 30"
Sunlit
Object was in full shadow at epoch
Visualization orbit readout
Latitude
Unknown
Longitude
Unknown
Altitude
Unknown
Speed
Unknown
Apparent Right ascension
Unknown
Apparent Declination
Unknown
Sunlit
N/A
Visualization observer readout
Local Sidereal Time
09:04:14
Azimuth
Unknown
Elevation
Unknown
Doppler factor
Unknown
Orbital elements
Apogee altitude
1,026.002 km
Perigee altitude
920.238 km
Semi-major axis
7,351.257 km
Eccentricity
0.00719
Inclination
66.7853°
RAAN
278.9476°
Arg. of periapsis
271.4986°
True anomaly
195.36405°
Mean anomaly
195.5836°
Eccentric anomaly
195.47364°
Mean motion
3.44351 °/min
Orbital period
104.54 mins
BSTAR
0.00052602
Loading maneuver chart data...
Computing Atmospheric mass density...

Documentation

Showing up to 5 results
|